Location: Grandview
(34.8900°N, 117.1058°W)
Time: 18:25:36
(UTC-07:00)

Vanguard 1 Rocket - All Passes

Search period start: 19 October 2017 00:00
Search period end: 29 October 2017 00:00
Orbit: 655 x 4222 km, 34.3° (Epoch: 19 October)

Date Brightness Start Highest point End Pass type
(mag) Time Alt. Az. Time Alt. Az. Time Alt. Az.
19 Oct - 04:55:22 10° S 05:02:43 18° SSE 05:07:56 10° ESE visible
19 Oct - 07:20:56 10° SW 07:29:06 45° SSE 07:34:04 10° E daylight
19 Oct - 09:48:35 10° W 09:54:05 84° S 09:58:27 10° E daylight
19 Oct - 12:14:24 10° W 12:18:40 52° SSW 12:23:52 10° ESE daylight
19 Oct - 14:40:15 10° WSW 14:43:46 17° SSW 14:48:19 10° SSE daylight
20 Oct - 03:45:56 10° S 03:50:29 12° SSE 03:54:16 10° SE visible
20 Oct - 06:08:23 10° SW 06:17:52 34° SSE 06:23:31 10° E visible
20 Oct - 08:36:24 10° WSW 08:43:22 73° S 08:47:57 10° E daylight
20 Oct - 11:03:26 10° W 11:08:07 73° S 11:12:42 10° ESE daylight
20 Oct - 13:28:54 10° WSW 13:32:44 25° SSW 13:37:45 10° SSE daylight
21 Oct - 04:56:01 10° SSW 05:06:12 26° SSE 05:12:32 10° ESE visible
21 Oct - 07:23:39 10° WSW 07:32:29 58° SSE 07:37:38 10° E daylight
21 Oct - 09:51:53 10° W 09:57:30 85° S 10:01:54 10° E daylight
21 Oct - 12:17:56 10° W 12:22:02 38° SSW 12:26:51 10° SE daylight
22 Oct - 03:44:27 10° S 03:54:00 19° SSE 04:00:36 10° ESE visible
22 Oct - 06:10:31 10° SW 06:21:16 45° SSE 06:27:15 10° E visible
22 Oct - 08:39:35 10° W 08:46:46 82° S 08:51:24 10° E daylight
22 Oct - 11:06:49 10° W 11:11:30 60° SSW 11:15:59 10° ESE daylight
22 Oct - 13:33:07 10° WSW 13:36:06 16° SSW 13:39:39 10° SSE daylight
23 Oct - 02:35:12 10° S 02:41:15 13° SSE 02:46:12 10° SE visible
23 Oct - 04:57:22 10° SW 05:09:36 35° SSE 05:16:35 10° E visible
23 Oct - 07:26:31 10° WSW 07:35:51 70° SSE 07:41:07 10° E daylight
23 Oct - 09:55:13 10° W 10:00:55 80° S 10:05:18 10° E daylight
23 Oct - 12:21:36 10° W 12:25:21 27° SSW 12:29:34 10° SE daylight
24 Oct - 03:44:41 10° SSW 03:57:25 27° SSE 04:05:18 10° E visible
24 Oct - 06:12:55 10° WSW 06:24:37 56° SSE 06:30:50 10° E visible
24 Oct - 08:42:48 10° W 08:50:11 86° S 08:54:52 10° E daylight
24 Oct - 11:10:15 10° W 11:14:50 45° SSW 11:19:09 10° SE daylight
25 Oct - 02:33:10 10° S 02:44:41 19° SSE 02:52:47 10° ESE visible
25 Oct - 04:59:09 10° SW 05:12:57 45° SSE 05:20:21 10° E visible
25 Oct - 07:29:32 10° WSW 07:39:13 79° S 07:44:36 10° E daylight
25 Oct - 09:58:31 10° W 10:04:19 70° SSW 10:08:41 10° ESE daylight
25 Oct - 12:25:33 10° WSW 12:28:37 18° SSW 12:31:54 10° SSE daylight
26 Oct - 01:24:52 10° SSE 01:31:25 12° SE 01:36:59 10° SE visible
26 Oct - 03:45:38 10° SSW 04:00:45 35° SSE 04:09:25 10° E visible
26 Oct - 06:15:34 10° WSW 06:27:57 68° SSE 06:34:20 10° E visible
26 Oct - 08:46:02 10° W 08:53:35 85° S 08:58:20 10° E daylight
26 Oct - 11:13:45 10° W 11:18:06 33° SSW 11:22:08 10° SE daylight
27 Oct - 02:32:56 10° SSW 02:48:01 27° SSE 02:57:39 10° E visible
27 Oct - 05:01:14 10° SW 05:16:16 55° SSE 05:23:58 10° E visible
27 Oct - 07:32:37 10° W 07:42:36 85° S 07:48:04 10° E daylight
27 Oct - 10:01:50 10° W 10:07:39 57° SSW 10:12:00 10° ESE daylight
27 Oct - 12:30:29 10° SW 12:31:49 11° SSW 12:33:11 10° SSW daylight
28 Oct - 01:21:57 10° S 01:34:46 19° SE 01:44:15 10° ESE visible
28 Oct - 03:47:03 10° SW 04:04:03 44° SSE 04:13:13 10° E visible
28 Oct - 06:18:22 10° WSW 06:31:16 77° S 06:37:49 10° E visible
28 Oct - 08:49:15 10° W 08:56:59 79° S 09:01:45 10° ESE daylight
28 Oct - 11:17:25 10° W 11:21:19 23° SSW 11:24:51 10° SSE daylight
